| time (UTC) | temp F | wind direction | speed MPH | gust MPH | rain 1hr in | rain 24hr in | rain mn in | humidity % | barometer mb |
| 20260503173033 | 68 | 188 | 1.0 | 5.0 | 0.00 | 0.00 | 0.00 | 64 | 1014.6 |
| 20260503172507 | 69 | 213 | 0.0 | 5.0 | 0.00 | 0.00 | 0.00 | 57 | 1014.7 |
| 20260503172004 | 69 | 338 | 2.0 | 6.0 | 0.00 | 0.00 | 0.00 | 56 | 1014.7 |
| 20260503171516 | 68 | 348 | 1.0 | 6.0 | 0.00 | 0.00 | 0.00 | 55 | 1014.7 |
| 20260503171006 | 68 | 338 | 0.0 | 4.0 | 0.00 | 0.00 | 0.00 | 56 | 1014.8 |
| 20260503170506 | 67 | 169 | 0.0 | 4.0 | 0.00 | 0.00 | 0.00 | 56 | 1014.9 |
| 20260503151005 | 55 | 292 | 0.0 | 0.0 | 0.00 | 0.00 | 0.00 | 85 | 1015.2 |
| 20260503150506 | 55 | 292 | 0.0 | 0.0 | 0.00 | 0.00 | 0.00 | 87 | 1015.3 |
| 20260503131003 | 48 | 292 | 0.0 | 0.0 | 0.00 | 0.00 | 0.00 | 93 | 1014.9 |
| 20260503130507 | 48 | 292 | 0.0 | 0.0 | 0.00 | 0.01 | 0.00 | 93 | 1014.9 |
| 20260503110508 | 49 | 198 | 0.0 | 0.0 | 0.00 | 0.01 | 0.00 | 92 | 1015.1 |
| 20260503090507 | 50 | 198 | 0.0 | 0.0 | 0.00 | 0.01 | 0.00 | 91 | 1014.7 |
| 20260503081519 | 52 | 198 | 0.0 | 0.0 | 0.00 | 0.01 | 0.00 | 89 | 1014.7 |
| 20260503081005 | 52 | 198 | 0.0 | 0.0 | 0.00 | 0.01 | 0.00 | 90 | 1014.7 |
| 20260503080507 | 52 | 198 | 0.0 | 0.0 | 0.00 | 0.01 | 0.00 | 90 | 1014.7 |
| 20260503072510 | 52 | 198 | 0.0 | 0.0 | 0.00 | 0.01 | 0.00 | 89 | 1014.7 |
| 20260503072004 | 52 | 198 | 0.0 | 0.0 | 0.00 | 0.01 | 0.00 | 89 | 1014.6 |
| 20260503071512 | 53 | 198 | 0.0 | 0.0 | 0.00 | 0.01 | 0.00 | 88 | 1014.7 |
| 20260503071007 | 53 | 198 | 0.0 | 0.0 | 0.00 | 0.01 | 0.00 | 88 | 1014.7 |
| 20260503070506 | 53 | 198 | 0.0 | 0.0 | 0.00 | 0.01 | 0.00 | 88 | 1014.7 |
| 20260503055007 | 54 | 198 | 0.0 | 0.0 | 0.00 | 0.01 | 0.01 | 87 | 1014.2 |
| 20260503054511 | 54 | 198 | 0.0 | 0.0 | 0.00 | 0.01 | 0.01 | 86 | 1014.3 |
| 20260503054007 | 54 | 198 | 0.0 | 0.0 | 0.00 | 0.01 | 0.01 | 85 | 1014.2 |
| 20260503053506 | 55 | 198 | 0.0 | 0.0 | 0.00 | 0.01 | 0.01 | 85 | 1014.3 |
| 20260503053018 | 55 | 198 | 0.0 | 0.0 | 0.00 | 0.01 | 0.01 | 85 | 1014.3 |
| 20260503052509 | 55 | 198 | 0.0 | 0.0 | 0.00 | 0.01 | 0.01 | 85 | 1014.4 |
| 20260503052008 | 55 | 198 | 0.0 | 0.0 | 0.00 | 0.01 | 0.01 | 85 | 1014.4 |
| 20260503051519 | 55 | 198 | 0.0 | 0.0 | 0.00 | 0.01 | 0.01 | 84 | 1014.4 |
| 20260503051007 | 55 | 198 | 0.0 | 0.0 | 0.00 | 0.01 | 0.01 | 84 | 1014.4 |
| 20260503050506 | 55 | 198 | 0.0 | 0.0 | 0.00 | 0.01 | 0.01 | 85 | 1014.4 |
| 20260503050014 | 56 | 198 | 0.0 | 0.0 | 0.00 | 0.01 | 0.01 | 84 | 1014.4 |
| 20260503045506 | 56 | 198 | 0.0 | 0.0 | 0.00 | 0.01 | 0.01 | 84 | 1014.4 |
| 20260503045009 | 56 | 198 | 0.0 | 0.0 | 0.00 | 0.01 | 0.01 | 83 | 1014.3 |
| 20260503044525 | 56 | 198 | 0.0 | 0.0 | 0.00 | 0.01 | 0.01 | 83 | 1014.4 |
| 20260503044006 | 57 | 198 | 0.0 | 0.0 | 0.00 | 0.01 | 0.01 | 82 | 1014.4 |
| 20260503043506 | 57 | 198 | 0.0 | 0.0 | 0.00 | 0.01 | 0.01 | 82 | 1014.3 |
| 20260503043023 | 57 | 198 | 0.0 | 0.0 | 0.00 | 0.01 | 0.01 | 82 | 1014.2 |
| 20260503042504 | 57 | 198 | 0.0 | 0.0 | 0.00 | 0.01 | 0.01 | 81 | 1014.2 |
| 20260503042008 | 58 | 198 | 0.0 | 0.0 | 0.00 | 0.01 | 0.01 | 81 | 1014.3 |
| 20260503041522 | 58 | 198 | 0.0 | 0.0 | 0.00 | 0.01 | 0.01 | 81 | 1014.3 |
| 20260503041010 | 58 | 198 | 0.0 | 0.0 | 0.00 | 0.01 | 0.01 | 80 | 1014.2 |
| 20260503040506 | 58 | 198 | 0.0 | 0.0 | 0.00 | 0.01 | 0.01 | 80 | 1014.2 |
| 20260503040016 | 58 | 198 | 0.0 | 0.0 | 0.00 | 0.01 | 0.01 | 80 | 1014.1 |
| 20260503035506 | 59 | 198 | 0.0 | 0.0 | 0.00 | 0.01 | 0.01 | 79 | 1014.0 |
| 20260503035006 | 59 | 198 | 0.0 | 0.0 | 0.00 | 0.01 | 0.01 | 78 | 1013.9 |
| 20260503034520 | 60 | 198 | 0.0 | 0.0 | 0.00 | 0.01 | 0.01 | 76 | 1013.8 |
| 20260503034010 | 60 | 198 | 0.0 | 0.0 | 0.00 | 0.01 | 0.01 | 75 | 1013.7 |
| 20260503033507 | 60 | 198 | 0.0 | 0.0 | 0.00 | 0.01 | 0.01 | 76 | 1013.6 |
| 20260503033016 | 60 | 198 | 0.0 | 1.0 | 0.00 | 0.01 | 0.01 | 75 | 1013.6 |
| 20260503032506 | 61 | 198 | 0.0 | 1.0 | 0.00 | 0.01 | 0.01 | 74 | 1013.6 |
| 20260503032007 | 62 | 198 | 0.0 | 1.0 | 0.00 | 0.01 | 0.01 | 72 | 1013.6 |
| 20260503031534 | 62 | 198 | 0.0 | 2.0 | 0.00 | 0.01 | 0.01 | 71 | 1013.7 |
| 20260503031008 | 62 | 198 | 0.0 | 2.0 | 0.00 | 0.01 | 0.01 | 71 | 1013.7 |
| 20260503030507 | 63 | 198 | 0.0 | 2.0 | 0.00 | 0.01 | 0.01 | 69 | 1013.6 |
| 20260503030024 | 64 | 198 | 0.0 | 2.0 | 0.00 | 0.01 | 0.01 | 68 | 1013.6 |
| 20260503025507 | 64 | 198 | 0.0 | 2.0 | 0.00 | 0.01 | 0.01 | 67 | 1013.6 |
| 20260503025006 | 64 | 198 | 1.0 | 3.0 | 0.00 | 0.01 | 0.01 | 66 | 1013.5 |
| 20260503024524 | 65 | 198 | 1.0 | 3.0 | 0.00 | 0.01 | 0.01 | 65 | 1013.6 |
| 20260503024011 | 65 | 198 | 1.0 | 3.0 | 0.00 | 0.01 | 0.01 | 64 | 1013.6 |
| 20260503023506 | 66 | 171 | 0.0 | 4.0 | 0.00 | 0.01 | 0.01 | 62 | 1013.6 |
| 20260503023041 | 67 | 190 | 1.0 | 4.0 | 0.00 | 0.01 | 0.01 | 63 | 1013.6 |
| 20260503022508 | 67 | 169 | 1.0 | 2.0 | 0.00 | 0.01 | 0.01 | 62 | 1013.6 |
| 20260503022005 | 67 | 169 | 1.0 | 4.0 | 0.00 | 0.01 | 0.01 | 63 | 1013.6 |
| 20260503021523 | 67 | 169 | 1.0 | 4.0 | 0.00 | 0.01 | 0.01 | 64 | 1013.6 |
| 20260503021008 | 67 | 169 | 0.0 | 4.0 | 0.00 | 0.01 | 0.01 | 61 | 1013.7 |
| 20260503020507 | 67 | 169 | 0.0 | 2.0 | 0.00 | 0.01 | 0.01 | 61 | 1013.7 |
| 20260503020019 | 68 | 169 | 0.0 | 3.0 | 0.00 | 0.01 | 0.01 | 61 | 1013.8 |
| 20260503015508 | 68 | 174 | 0.0 | 3.0 | 0.00 | 0.01 | 0.01 | 61 | 1013.8 |
| 20260503015010 | 68 | 212 | 1.0 | 3.0 | 0.00 | 0.01 | 0.01 | 62 | 1013.9 |
| 20260503014514 | 67 | 212 | 1.0 | 3.0 | 0.00 | 0.01 | 0.01 | 61 | 1014.0 |
| 20260503014010 | 68 | 227 | 1.0 | 4.0 | 0.00 | 0.01 | 0.01 | 60 | 1014.0 |
| 20260503013506 | 68 | 162 | 1.0 | 4.0 | 0.00 | 0.01 | 0.01 | 60 | 1014.1 |
| 20260503013028 | 68 | 164 | 1.0 | 4.0 | 0.00 | 0.01 | 0.01 | 61 | 1014.1 |
| 20260503012506 | 68 | 169 | 1.0 | 5.0 | 0.00 | 0.01 | 0.01 | 60 | 1014.1 |
| 20260503012006 | 68 | 204 | 1.0 | 6.0 | 0.00 | 0.01 | 0.01 | 60 | 1014.2 |
| 20260503011508 | 69 | 123 | 3.0 | 6.0 | 0.00 | 0.01 | 0.01 | 59 | 1014.2 |
| 20260503011002 | 70 | 141 | 1.0 | 6.0 | 0.00 | 0.01 | 0.01 | 59 | 1014.2 |
| 20260503010502 | 69 | 192 | 1.0 | 6.0 | 0.00 | 0.01 | 0.01 | 59 | 1014.3 |
| 20260503010009 | 70 | 215 | 2.0 | 5.0 | 0.00 | 0.01 | 0.01 | 58 | 1014.3 |
| 20260503005503 | 70 | 163 | 1.0 | 5.0 | 0.00 | 0.01 | 0.01 | 58 | 1014.3 |
| 20260503005005 | 69 | 200 | 1.0 | 6.0 | 0.00 | 0.01 | 0.01 | 59 | 1014.3 |
| 20260503004507 | 69 | 236 | 1.0 | 6.0 | 0.00 | 0.01 | 0.01 | 58 | 1014.3 |
| 20260503004003 | 70 | 183 | 2.0 | 6.0 | 0.00 | 0.01 | 0.01 | 59 | 1014.3 |
| 20260503003503 | 70 | 163 | 2.0 | 6.0 | 0.00 | 0.01 | 0.01 | 59 | 1014.3 |
| 20260503003011 | 70 | 208 | 2.0 | 6.0 | 0.00 | 0.01 | 0.01 | 59 | 1014.4 |
| 20260503002507 | 71 | 218 | 1.0 | 7.0 | 0.00 | 0.01 | 0.01 | 60 | 1014.4 |
| 20260503002003 | 71 | 229 | 3.0 | 7.0 | 0.00 | 0.01 | 0.01 | 64 | 1014.4 |
| 20260503001510 | 71 | 225 | 2.0 | 7.0 | 0.00 | 0.01 | 0.01 | 63 | 1014.5 |
| 20260503001004 | 71 | 138 | 1.0 | 6.0 | 0.00 | 0.01 | 0.01 | 59 | 1014.5 |
| 20260503000504 | 71 | 217 | 2.0 | 6.0 | 0.00 | 0.01 | 0.01 | 61 | 1014.5 |
| 20260503000015 | 71 | 203 | 4.0 | 6.0 | 0.00 | 0.01 | 0.01 | 60 | 1014.4 |
| 20260502235503 | 71 | 110 | 3.0 | 6.0 | 0.00 | 0.01 | 0.01 | 59 | 1014.5 |
| 20260502235003 | 71 | 218 | 1.0 | 9.0 | 0.00 | 0.01 | 0.01 | 61 | 1014.6 |
| 20260502234507 | 71 | 207 | 3.0 | 10.0 | 0.00 | 0.01 | 0.01 | 59 | 1014.7 |
| 20260502234003 | 72 | 191 | 4.0 | 10.0 | 0.00 | 0.01 | 0.01 | 59 | 1014.7 |
| 20260502233503 | 72 | 213 | 3.0 | 8.0 | 0.00 | 0.01 | 0.01 | 56 | 1014.7 |
| 20260502233011 | 72 | 106 | 1.0 | 7.0 | 0.00 | 0.01 | 0.01 | 57 | 1014.7 |
| 20260502232504 | 73 | 198 | 3.0 | 7.0 | 0.00 | 0.01 | 0.01 | 49 | 1014.9 |
| 20260502232010 | 73 | 195 | 2.0 | 8.0 | 0.00 | 0.01 | 0.01 | 51 | 1015.0 |
| 20260502231511 | 73 | 250 | 3.0 | 8.0 | 0.00 | 0.01 | 0.01 | 53 | 1014.9 |
| 20260502231007 | 72 | 290 | 3.0 | 10.0 | 0.00 | 0.01 | 0.01 | 51 | 1015.0 |
| 20260502230507 | 73 | 274 | 3.0 | 10.0 | 0.00 | 0.01 | 0.01 | 52 | 1015.2 |
| 20260502230005 | 73 | 312 | 3.0 | 9.0 | 0.00 | 0.01 | 0.01 | 51 | 1015.1 |
| 20260502225502 | 73 | 26 | 3.0 | 9.0 | 0.00 | 0.01 | 0.01 | 59 | 1015.1 |
| 20260502225002 | 73 | 281 | 2.0 | 6.0 | 0.00 | 0.01 | 0.01 | 48 | 1015.2 |
| 20260502224511 | 73 | 263 | 3.0 | 10.0 | 0.00 | 0.01 | 0.01 | 48 | 1015.3 |
| 20260502224002 | 73 | 317 | 5.0 | 10.0 | 0.00 | 0.01 | 0.01 | 52 | 1015.4 |
| 20260502223505 | 73 | 344 | 3.0 | 8.0 | 0.00 | 0.01 | 0.01 | 53 | 1015.3 |
| 20260502223009 | 72 | 317 | 3.0 | 11.0 | 0.00 | 0.01 | 0.01 | 54 | 1015.3 |
| 20260502222503 | 72 | 260 | 6.0 | 11.0 | 0.00 | 0.01 | 0.01 | 53 | 1015.4 |
| 20260502222004 | 72 | 277 | 6.0 | 10.0 | 0.00 | 0.01 | 0.01 | 51 | 1015.5 |
| 20260502221509 | 72 | 192 | 3.0 | 9.0 | 0.00 | 0.01 | 0.01 | 55 | 1015.5 |
| 20260502221010 | 71 | 299 | 5.0 | 10.0 | 0.00 | 0.01 | 0.01 | 57 | 1015.6 |
| 20260502220503 | 71 | 269 | 4.0 | 10.0 | 0.00 | 0.01 | 0.01 | 54 | 1015.6 |
| 20260502220005 | 71 | 274 | 3.0 | 10.0 | 0.00 | 0.01 | 0.01 | 56 | 1015.7 |
| 20260502215505 | 71 | 242 | 4.0 | 9.0 | 0.00 | 0.01 | 0.01 | 55 | 1015.7 |
| 20260502215005 | 71 | 261 | 2.0 | 9.0 | 0.00 | 0.01 | 0.01 | 58 | 1015.9 |
| 20260502214507 | 71 | 302 | 3.0 | 9.0 | 0.00 | 0.01 | 0.01 | 56 | 1015.9 |
| 20260502214007 | 71 | 271 | 5.0 | 9.0 | 0.00 | 0.01 | 0.01 | 55 | 1016.1 |
| 20260502213507 | 72 | 185 | 4.0 | 10.0 | 0.00 | 0.01 | 0.01 | 56 | 1016.1 |
| 20260502213007 | 70 | 248 | 2.0 | 10.0 | 0.00 | 0.01 | 0.01 | 55 | 1016.1 |
| 20260502212506 | 71 | 274 | 4.0 | 7.0 | 0.00 | 0.01 | 0.01 | 53 | 1016.2 |
| 20260502212008 | 71 | 309 | 2.0 | 9.0 | 0.00 | 0.01 | 0.01 | 57 | 1016.3 |
| 20260502211510 | 71 | 317 | 4.0 | 10.0 | 0.00 | 0.01 | 0.01 | 58 | 1016.3 |
| 20260502211007 | 70 | 238 | 4.0 | 10.0 | 0.00 | 0.01 | 0.01 | 54 | 1016.4 |
| 20260502210502 | 69 | 308 | 2.0 | 12.0 | 0.00 | 0.01 | 0.01 | 53 | 1016.4 |
| 20260502210008 | 69 | 287 | 7.0 | 12.0 | 0.00 | 0.01 | 0.01 | 54 | 1016.5 |
| 20260502205504 | 69 | 250 | 5.0 | 9.0 | 0.00 | 0.01 | 0.01 | 56 | 1016.5 |
| 20260502205004 | 69 | 337 | 3.0 | 12.0 | 0.00 | 0.01 | 0.01 | 57 | 1016.5 |
| 20260502204519 | 69 | 273 | 3.0 | 12.0 | 0.00 | 0.01 | 0.01 | 60 | 1016.5 |
| 20260502204009 | 69 | 270 | 3.0 | 10.0 | 0.00 | 0.01 | 0.01 | 61 | 1016.6 |
| 20260502203504 | 68 | 294 | 5.0 | 10.0 | 0.00 | 0.01 | 0.01 | 58 | 1016.6 |
| 20260502203015 | 68 | 246 | 5.0 | 11.0 | 0.00 | 0.01 | 0.01 | 61 | 1016.6 |
| 20260502202506 | 69 | 303 | 2.0 | 12.0 | 0.00 | 0.01 | 0.01 | 63 | 1016.6 |
| 20260502202002 | 69 | 271 | 7.0 | 14.0 | 0.00 | 0.01 | 0.01 | 61 | 1016.6 |
| 20260502201509 | 69 | 256 | 4.0 | 14.0 | 0.00 | 0.01 | 0.01 | 63 | 1016.6 |
| 20260502201006 | 69 | 289 | 5.0 | 12.0 | 0.00 | 0.01 | 0.01 | 62 | 1016.7 |
| 20260502200505 | 69 | 287 | 3.0 | 12.0 | 0.00 | 0.01 | 0.01 | 67 | 1016.6 |
| 20260502200010 | 69 | 255 | 4.0 | 11.0 | 0.00 | 0.01 | 0.01 | 64 | 1016.6 |
| 20260502195505 | 68 | 161 | 4.0 | 9.0 | 0.00 | 0.01 | 0.01 | 67 | 1016.7 |
| 20260502195005 | 68 | 262 | 3.0 | 9.0 | 0.00 | 0.01 | 0.01 | 66 | 1016.8 |
| 20260502194508 | 68 | 288 | 3.0 | 10.0 | 0.00 | 0.01 | 0.01 | 66 | 1016.8 |
| 20260502194009 | 68 | 223 | 3.0 | 10.0 | 0.00 | 0.01 | 0.01 | 65 | 1017.0 |
| 20260502193508 | 68 | 215 | 4.0 | 14.0 | 0.00 | 0.01 | 0.01 | 67 | 1017.0 |
| 20260502193010 | 67 | 217 | 3.0 | 14.0 | 0.00 | 0.01 | 0.01 | 69 | 1017.0 |
| 20260502192506 | 68 | 93 | 4.0 | 12.0 | 0.00 | 0.01 | 0.01 | 69 | 1017.1 |
| 20260502192010 | 68 | 204 | 6.0 | 12.0 | 0.00 | 0.01 | 0.01 | 70 | 1017.0 |
| 20260502191515 | 68 | 200 | 6.0 | 12.0 | 0.00 | 0.01 | 0.01 | 70 | 1017.1 |
| 20260502191004 | 69 | 205 | 6.0 | 12.0 | 0.00 | 0.01 | 0.01 | 69 | 1017.1 |
| 20260502190503 | 71 | 174 | 4.0 | 10.0 | 0.00 | 0.01 | 0.01 | 59 | 1017.1 |
| 20260502190011 | 71 | 5 | 1.0 | 4.0 | 0.00 | 0.01 | 0.01 | 59 | 1017.1 |
| 20260502185508 | 70 | 302 | 1.0 | 4.0 | 0.00 | 0.01 | 0.01 | 57 | 1017.1 |
| 20260502185007 | 70 | 36 | 1.0 | 8.0 | 0.00 | 0.01 | 0.01 | 55 | 1017.0 |
| 20260502184515 | 69 | 355 | 0.0 | 8.0 | 0.00 | 0.01 | 0.01 | 54 | 1017.2 |
| 20260502184009 | 69 | 297 | 2.0 | 9.0 | 0.00 | 0.01 | 0.01 | 56 | 1017.2 |
| 20260502183510 | 69 | 313 | 2.0 | 9.0 | 0.00 | 0.01 | 0.01 | 58 | 1017.2 |
| 20260502183013 | 69 | 312 | 1.0 | 5.0 | 0.00 | 0.01 | 0.01 | 58 | 1017.3 |
| 20260502182509 | 68 | 309 | 2.0 | 6.0 | 0.00 | 0.01 | 0.01 | 60 | 1017.3 |
| 20260502182006 | 68 | 304 | 3.0 | 7.0 | 0.00 | 0.01 | 0.01 | 57 | 1017.3 |
| 20260502181510 | 68 | 325 | 0.0 | 7.0 | 0.00 | 0.01 | 0.01 | 63 | 1017.4 |
| 20260502181004 | 67 | 322 | 2.0 | 7.0 | 0.00 | 0.01 | 0.01 | 62 | 1017.5 |
| 20260502180509 | 66 | 322 | 3.0 | 7.0 | 0.00 | 0.01 | 0.01 | 67 | 1017.5 |